KD5NDU-15 Weather Reports


time (UTC)temp
C
wind
direction
speed
KPH
gust
KPH
rain 1hr
cm
rain 24hr
cm
rain mn
cm
humidity
%
barometer
mb
20260905181631 37 65 6.4 12.9 0.00 0.00 0.00 49 1013.7
20260905181131 37 110 6.4 14.5 0.00 0.00 0.00 51 1013.6
20260905180631 37 161 4.8 12.9 0.00 0.00 0.00 50 1013.7
20260905180131 37 209 4.8 11.3 0.00 0.00 0.00 50 1013.8
20260905175631 37 70 4.8 8.0 0.00 0.00 0.00 52 1013.9
20260905175131 37 2 4.8 11.3 0.00 0.00 0.00 53 1013.8
20260905174631 37 162 4.8 9.7 0.00 0.00 0.00 52 1013.9
20260905174131 37 14 4.8 8.0 0.00 0.00 0.00 52 1014.0
20260905173631 37 127 4.8 14.5 0.00 0.00 0.00 51 1014.0
20260905173131 38 127 3.2 14.5 0.00 0.00 0.00 50 1014.1
20260905172631 38 162 1.6 4.8 0.00 0.00 0.00 53 1014.0
20260905172131 37 226 3.2 6.4 0.00 0.00 0.00 54 1014.0
20260905171631 37 307 3.2 4.8 0.00 0.00 0.00 54 1014.1
20260905171131 37 359 4.8 9.7 0.00 0.00 0.00 53 1014.2
20260905170631 36 150 6.4 9.7 0.00 0.00 0.00 56 1014.4
20260905170131 37 98 4.8 12.9 0.00 0.00 0.00 54 1014.5
20260905165631 37 181 3.2 6.4 0.00 0.00 0.00 56 1014.5
20260905165131 37 55 3.2 9.7 0.00 0.00 0.00 56 1014.6
20260905164631 37 106 3.2 8.0 0.00 0.00 0.00 56 1014.7
20260905164131 36 295 3.2 8.0 0.00 0.00 0.00 58 1014.7
20260905163631 36 27 3.2 8.0 0.00 0.00 0.00 59 1014.6
20260905163131 36 86 3.2 9.7 0.00 0.00 0.00 58 1014.8
20260905162631 36 0 3.2 4.8 0.00 0.00 0.00 59 1014.7
20260905162131 36 15 3.2 8.0 0.00 0.00 0.00 59 1014.6
20260905161631 36 28 3.2 6.4 0.00 0.00 0.00 59 1014.7
20260905161131 36 1 3.2 4.8 0.00 0.00 0.00 60 1014.9
20260905160631 36 32 3.2 8.0 0.00 0.00 0.00 61 1014.8
20260905160131 36 71 3.2 4.8 0.00 0.00 0.00 61 1014.8
20260905155631 35 49 3.2 11.3 0.00 0.00 0.00 62 1014.9
20260905155131 36 113 1.6 8.0 0.00 0.00 0.00 61 1015.0
20260905154631 35 64 1.6 6.4 0.00 0.00 0.00 63 1014.9
20260905154131 35 18 1.6 4.8 0.00 0.00 0.00 64 1014.8
20260905153631 35 20 1.6 3.2 0.00 0.00 0.00 64 1014.8
20260905153131 35 20 1.6 3.2 0.00 0.00 0.00 65 1014.9
20260905152631 34 20 1.6 3.2 0.00 0.00 0.00 65 1014.8
20260905152131 34 101 1.6 6.4 0.00 0.00 0.00 66 1014.8
20260905151631 33 357 1.6 4.8 0.00 0.00 0.00 67 1014.8
20260905151131 33 25 3.2 6.4 0.00 0.00 0.00 68 1014.9
20260905150631 33 105 1.6 6.4 0.00 0.00 0.00 68 1014.9
20260905150131 33 55 0.0 4.8 0.00 0.00 0.00 70 1015.0
20260905145631 33 272 1.6 1.6 0.00 0.00 0.00 72 1015.1
20260905145131 32 257 1.6 3.2 0.00 0.00 0.00 73 1015.1
20260905144631 32 238 1.6 4.8 0.00 0.00 0.00 73 1015.0
20260905144131 32 164 1.6 4.8 0.00 0.00 0.00 75 1015.0
20260905143631 31 1 0.0 3.2 0.00 0.00 0.00 76 1015.0
20260905143131 31 1 0.0 3.2 0.00 0.00 0.00 78 1015.1
20260905142631 31 1 0.0 1.6 0.00 0.00 0.00 79 1014.9
20260905142131 30 44 0.0 4.8 0.00 0.00 0.00 80 1014.8
20260905141631 30 62 0.0 4.8 0.00 0.00 0.00 81 1014.8
20260905141131 30 211 0.0 1.6 0.00 0.00 0.00 83 1015.0
20260905140631 29 211 0.0 3.2 0.00 0.00 0.00 83 1015.1
20260905140131 29 216 0.0 1.6 0.00 0.00 0.00 84 1015.1
20260905135631 28 216 0.0 1.6 0.00 0.00 0.00 86 1015.1
20260905135131 28 216 0.0 1.6 0.00 0.00 0.00 87 1015.0
20260905134631 27 216 0.0 1.6 0.00 0.00 0.00 89 1014.9
20260905134131 27 216 0.0 3.2 0.00 0.00 0.00 89 1014.9
20260905133631 26 217 0.0 0.0 0.00 0.00 0.00 92 1014.8
20260905133131 26 217 0.0 0.0 0.00 0.00 0.00 93 1014.8
20260905132631 25 217 0.0 0.0 0.00 0.00 0.00 94 1014.8
20260905132131 25 217 0.0 0.0 0.00 0.00 0.00 94 1014.6
20260905131631 25 217 0.0 0.0 0.00 0.00 0.00 94 1014.7
20260905131131 24 217 0.0 0.0 0.00 0.00 0.00 95 1014.6
20260905130631 24 217 0.0 0.0 0.00 0.00 0.00 95 1014.6
20260905130131 23 217 0.0 0.0 0.00 0.00 0.00 95 1014.6
20260905125631 23 217 0.0 0.0 0.00 0.00 0.00 96 1014.7
20260905125131 23 217 0.0 0.0 0.00 0.00 0.00 96 1014.7
20260905124631 23 217 0.0 0.0 0.00 0.00 0.00 96 1014.8
20260905124131 23 217 0.0 0.0 0.00 0.00 0.00 96 1014.7
20260905123631 23 217 0.0 0.0 0.00 0.00 0.00 96 1014.8
20260905123131 22 217 0.0 0.0 0.00 0.00 0.00 96 1014.8
20260905122631 22 217 0.0 0.0 0.00 0.00 0.00 96 1014.7
20260905122131 22 217 0.0 0.0 0.00 0.00 0.00 96 1014.7
20260905121631 22 217 0.0 0.0 0.00 0.00 0.00 96 1014.6
20260905121131 22 217 0.0 0.0 0.00 0.00 0.00 95 1014.6
20260905120631 22 217 0.0 0.0 0.00 0.00 0.00 95 1014.6
20260905120131 22 217 0.0 0.0 0.00 0.00 0.00 95 1014.5
20260905115631 22 217 0.0 0.0 0.00 0.00 0.00 95 1014.5
20260905115131 22 217 0.0 0.0 0.00 0.00 0.00 95 1014.5
20260905114631 22 217 0.0 0.0 0.00 0.00 0.00 95 1014.5
20260905114131 22 217 0.0 0.0 0.00 0.00 0.00 96 1014.4
20260905113631 22 217 0.0 0.0 0.00 0.00 0.00 95 1014.3
20260905113131 22 217 0.0 0.0 0.00 0.00 0.00 95 1014.3
20260905112631 22 217 0.0 0.0 0.00 0.00 0.00 95 1014.3
20260905112131 22 217 0.0 0.0 0.00 0.00 0.00 95 1014.3
20260905111631 22 217 0.0 0.0 0.00 0.00 0.00 95 1014.3
20260905111131 22 217 0.0 0.0 0.00 0.00 0.00 95 1014.1
20260905110631 23 217 0.0 0.0 0.00 0.00 0.00 95 1014.1
20260905110131 23 217 0.0 0.0 0.00 0.00 0.00 95 1014.1
20260905105631 23 217 0.0 0.0 0.00 0.00 0.00 95 1014.1
20260905105131 23 217 0.0 0.0 0.00 0.00 0.00 95 1014.0
20260905104631 23 217 0.0 0.0 0.00 0.00 0.00 95 1014.0
20260905104131 23 217 0.0 0.0 0.00 0.00 0.00 95 1013.9
20260905103631 23 217 0.0 0.0 0.00 0.00 0.00 95 1013.9
20260905103131 23 217 0.0 0.0 0.00 0.00 0.00 95 1013.9
20260905102631 23 217 0.0 0.0 0.00 0.00 0.00 95 1013.9
20260905102131 23 217 0.0 0.0 0.00 0.00 0.00 95 1013.9
20260905101631 23 217 0.0 0.0 0.00 0.00 0.00 95 1014.0
20260905101131 23 217 0.0 0.0 0.00 0.00 0.00 95 1014.0
20260905100631 23 217 0.0 0.0 0.00 0.00 0.00 95 1013.9
20260905100131 23 217 0.0 0.0 0.00 0.00 0.00 95 1014.0
20260905095631 23 217 0.0 0.0 0.00 0.00 0.00 95 1014.0
20260905095131 23 217 0.0 0.0 0.00 0.00 0.00 95 1014.0
20260905094631 23 217 0.0 0.0 0.00 0.00 0.00 95 1013.9
20260905094131 23 217 0.0 1.6 0.00 0.00 0.00 95 1013.9
20260905093631 23 217 0.0 4.8 0.00 0.00 0.00 95 1014.0
20260905093131 23 215 0.0 0.0 0.00 0.00 0.00 95 1014.0
20260905092631 23 215 0.0 1.6 0.00 0.00 0.00 95 1013.8
20260905092131 23 215 0.0 0.0 0.00 0.00 0.00 95 1013.8
20260905091631 23 215 0.0 0.0 0.00 0.00 0.00 95 1013.9
20260905091132 23 215 0.0 3.2 0.00 0.00 0.00 95 1013.9
20260905090631 23 215 0.0 0.0 0.00 0.00 0.00 95 1013.8
20260905090131 23 215 0.0 0.0 0.00 0.00 0.00 95 1013.8
20260905085631 23 215 0.0 0.0 0.00 0.00 0.00 95 1013.8
20260905085131 23 215 0.0 0.0 0.00 0.00 0.00 95 1013.8
20260905084631 23 215 0.0 0.0 0.00 0.00 0.00 95 1013.8
20260905084131 23 215 0.0 0.0 0.00 0.00 0.00 95 1013.7
20260905083631 23 215 0.0 0.0 0.00 0.00 0.00 95 1013.8
20260905083131 23 215 0.0 1.6 0.00 0.00 0.00 95 1013.8
20260905082631 23 215 1.6 1.6 0.00 0.00 0.00 94 1013.7
20260905082131 23 215 1.6 4.8 0.00 0.00 0.00 94 1013.8
20260905081631 23 215 0.0 3.2 0.00 0.00 0.00 94 1013.8
20260905081131 23 215 0.0 1.6 0.00 0.00 0.00 94 1013.7
20260905080631 23 215 0.0 0.0 0.00 0.00 0.00 94 1013.6
20260905080131 23 215 0.0 0.0 0.00 0.00 0.00 94 1013.7
20260905075631 23 215 0.0 0.0 0.00 0.00 0.00 94 1013.8
20260905075131 23 215 0.0 0.0 0.00 0.00 0.00 94 1013.7
20260905074631 23 215 0.0 0.0 0.00 0.00 0.00 94 1013.8
20260905074131 23 215 0.0 0.0 0.00 0.00 0.00 94 1013.8
20260905073631 23 215 0.0 0.0 0.00 0.00 0.00 94 1013.8
20260905073132 23 215 0.0 0.0 0.00 0.00 0.00 95 1013.8
20260905072631 23 215 0.0 1.6 0.00 0.00 0.00 95 1013.8
20260905072132 23 215 1.6 3.2 0.00 0.00 0.00 94 1013.8
20260905071631 23 215 1.6 4.8 0.00 0.00 0.00 95 1014.0
20260905071132 23 215 1.6 6.4 0.00 0.00 0.00 95 1014.0
20260905070632 24 213 1.6 3.2 0.00 0.00 0.00 94 1013.8
20260905070132 24 213 1.6 3.2 0.00 0.00 0.00 94 1013.9
20260905065632 24 213 0.0 3.2 0.00 0.00 0.00 93 1013.7
20260905065132 24 213 0.0 3.2 0.00 0.00 0.00 92 1013.8
20260905064632 24 213 1.6 1.6 0.00 0.00 0.00 91 1013.8
20260905064132 24 213 0.0 3.2 0.00 0.00 0.00 91 1013.8
20260905063632 24 213 0.0 1.6 0.00 0.00 0.00 91 1013.9
20260905063132 24 213 0.0 1.6 0.00 0.00 0.00 91 1013.8
20260905062632 24 213 0.0 1.6 0.00 0.00 0.00 92 1013.7
20260905062132 24 213 0.0 3.2 0.00 0.00 0.00 92 1013.9
20260905061632 24 213 0.0 0.0 0.00 0.00 0.00 92 1013.9
20260905061132 24 213 0.0 0.0 0.00 0.00 0.00 93 1013.9
20260905060632 24 213 0.0 0.0 0.00 0.00 0.00 93 1013.9
20260905060132 24 213 0.0 1.6 0.00 0.00 0.00 92 1013.9
20260905055632 25 213 0.0 1.6 0.00 0.00 0.00 92 1013.8
20260905055132 25 213 0.0 0.0 0.00 0.00 0.00 93 1013.9
20260905054632 25 213 1.6 1.6 0.00 0.00 0.00 92 1013.9
20260905054132 25 213 1.6 4.8 0.00 0.00 0.00 93 1013.8
20260905053632 25 213 0.0 3.2 0.00 0.00 0.00 92 1013.9
20260905053132 25 213 3.2 3.2 0.00 0.00 0.00 92 1014.0
20260905052632 25 213 3.2 9.7 0.00 0.00 0.00 92 1014.0
20260905052132 25 212 0.0 9.7 0.00 0.00 0.00 90 1014.0
20260905051632 25 82 0.0 0.0 0.00 0.00 0.00 88 1013.7
20260905051132 25 82 0.0 0.0 0.00 0.00 0.00 87 1013.8
20260905050632 25 82 0.0 0.0 0.00 0.00 0.00 89 1013.7
20260905050132 25 82 0.0 0.0 0.00 0.00 0.00 89 1013.7
20260905045632 25 82 0.0 0.0 0.00 0.00 0.00 89 1013.7
20260905045132 26 82 0.0 0.0 0.00 0.00 0.00 88 1013.8
20260905044632 26 82 0.0 0.0 0.00 0.00 0.00 87 1013.7
20260905044132 26 82 0.0 0.0 0.00 0.00 0.00 88 1013.7
20260905043632 26 82 0.0 0.0 0.00 0.00 0.00 88 1013.8
20260905043132 26 82 0.0 0.0 0.00 0.00 0.00 88 1013.8
20260905042632 26 82 0.0 0.0 0.00 0.00 0.00 86 1013.8
20260905042132 27 82 0.0 0.0 0.00 0.00 0.00 83 1013.9
20260905041632 27 82 0.0 0.0 0.00 0.00 0.00 83 1013.9
20260905041132 27 82 0.0 0.0 0.00 0.00 0.00 82 1013.9
20260905040632 27 82 0.0 0.0 0.00 0.00 0.00 81 1014.0
20260905040132 26 82 0.0 0.0 0.00 0.00 0.00 82 1014.0
20260905035632 26 82 0.0 0.0 0.00 0.00 0.00 84 1014.0
20260905035132 26 82 0.0 0.0 0.00 0.00 0.00 83 1013.9
20260905034632 26 82 0.0 0.0 0.00 0.00 0.00 85 1013.9
20260905034132 26 82 0.0 0.0 0.00 0.00 0.00 84 1013.9
20260905033632 26 82 1.6 1.6 0.00 0.00 0.00 84 1014.0
20260905033132 26 82 1.6 3.2 0.00 0.00 0.00 85 1014.0
20260905032632 26 82 1.6 3.2 0.00 0.00 0.00 84 1014.0
20260905032132 26 82 0.0 3.2 0.00 0.00 0.00 84 1014.1
20260905031632 27 83 0.0 1.6 0.00 0.00 0.00 82 1014.1
20260905031132 27 83 0.0 0.0 0.00 0.00 0.00 83 1014.1
20260905030632 27 83 0.0 0.0 0.00 0.00 0.00 84 1014.0
20260905030132 27 83 0.0 1.6 0.00 0.00 0.00 84 1014.0
20260905025632 27 83 0.0 1.6 0.00 0.00 0.00 84 1014.1
20260905025132 27 83 0.0 0.0 0.00 0.00 0.00 83 1014.1
20260905024632 27 83 0.0 0.0 0.00 0.00 0.00 82 1014.1
20260905024132 27 83 0.0 0.0 0.00 0.00 0.00 80 1014.2
20260905023632 27 83 0.0 0.0 0.00 0.00 0.00 79 1014.1
20260905023132 27 83 0.0 1.6 0.00 0.00 0.00 79 1014.2
20260905022632 28 83 0.0 1.6 0.00 0.00 0.00 81 1014.3
20260905022132 28 83 0.0 1.6 0.00 0.00 0.00 79 1014.3
20260905021632 28 83 0.0 0.0 0.00 0.00 0.00 79 1014.3
20260905021132 28 83 1.6 3.2 0.00 0.00 0.00 79 1014.3
20260905020632 28 82 1.6 3.2 0.00 0.00 0.00 75 1014.2
20260905020132 28 79 0.0 4.8 0.00 0.00 0.00 77 1014.2
20260905015632 28 77 0.0 3.2 0.00 0.00 0.00 79 1014.2
20260905015132 28 77 1.6 3.2 0.00 0.00 0.00 81 1014.3
20260905014632 28 106 0.0 3.2 0.00 0.00 0.00 82 1014.2
20260905014132 28 105 0.0 0.0 0.00 0.00 0.00 79 1014.1
20260905013632 28 105 0.0 3.2 0.00 0.00 0.00 78 1014.0
20260905013132 29 98 0.0 1.6 0.00 0.00 0.00 75 1014.0
20260905012632 29 98 0.0 4.8 0.00 0.00 0.00 75 1014.0
20260905012132 29 96 0.0 1.6 0.00 0.00 0.00 75 1014.1
20260905011632 29 94 1.6 3.2 0.00 0.00 0.00 75 1014.1
20260905011132 29 71 1.6 4.8 0.00 0.00 0.00 74 1014.0
20260905010632 29 139 1.6 3.2 0.00 0.00 0.00 73 1014.1
20260905010132 30 91 1.6 6.4 0.00 0.00 0.00 74 1014.1
20260905005632 30 101 1.6 4.8 0.00 0.00 0.00 72 1014.2
20260905005132 30 177 0.0 3.2 0.00 0.00 0.00 71 1014.1
20260905004632 30 179 1.6 1.6 0.00 0.00 0.00 69 1014.1
20260905004132 30 179 1.6 3.2 0.00 0.00 0.00 68 1014.0
20260905003632 31 179 1.6 3.2 0.00 0.00 0.00 67 1014.0
20260905003132 31 179 0.0 6.4 0.00 0.00 0.00 66 1014.1
20260905002632 31 108 0.0 1.6 0.00 0.00 0.00 68 1014.1
20260905002132 31 108 0.0 3.2 0.00 0.00 0.00 68 1014.0
20260905001632 31 108 1.6 1.6 0.00 0.00 0.00 64 1014.0
20260905001132 31 108 1.6 3.2 0.00 0.00 0.00 64 1014.0
20260905000632 31 134 0.0 3.2 0.00 0.00 0.00 63 1013.9
20260905000132 32 214 0.0 0.0 0.00 0.00 0.00 62 1013.7
20260904235632 32 214 1.6 0.0 0.00 0.00 0.00 63 1013.7
20260904235132 32 214 3.2 3.2 0.00 0.00 0.00 62 1013.7
20260904234632 32 214 1.6 6.4 0.00 0.00 0.00 62 1013.6
20260904234132 32 321 0.0 3.2 0.00 0.00 0.00 63 1013.5
20260904233632 32 30 0.0 1.6 0.00 0.00 0.00 62 1013.6
20260904233132 32 30 0.0 1.6 0.00 0.00 0.00 62 1013.5
20260904232632 32 30 1.6 3.2 0.00 0.00 0.00 61 1013.7
20260904232132 32 35 3.2 6.4 0.00 0.00 0.00 58 1013.7
20260904231632 33 161 4.8 8.0 0.00 0.00 0.00 59 1013.8
20260904231132 33 6 6.4 17.7 0.00 0.00 0.00 57 1013.8
20260904230632 34 178 6.4 17.7 0.00 0.00 0.00 58 1013.6
20260904230132 35 134 4.8 11.3 0.00 0.00 0.00 58 1013.4
20260904225632 35 176 6.4 9.7 0.00 0.00 0.00 60 1013.3
20260904225132 35 229 8.0 12.9 0.00 0.00 0.00 59 1013.0
20260904224632 35 223 8.0 14.5 0.00 0.00 0.00 59 1013.1
20260904224132 35 224 8.0 14.5 0.00 0.00 0.00 58 1013.1
20260904223632 35 200 6.4 12.9 0.00 0.00 0.00 58 1013.1
20260904223132 35 253 6.4 11.3 0.00 0.00 0.00 57 1013.2
20260904222632 35 240 6.4 12.9 0.00 0.00 0.00 57 1013.2
20260904222132 36 242 6.4 9.7 0.00 0.00 0.00 55 1013.2
20260904221632 36 257 3.2 8.0 0.00 0.00 0.00 53 1013.1
20260904221132 37 144 1.6 8.0 0.00 0.00 0.00 50 1013.0
20260904220632 37 356 1.6 4.8 0.00 0.00 0.00 49 1013.0
20260904220132 37 144 1.6 6.4 0.00 0.00 0.00 48 1012.8
20260904215632 37 58 1.6 6.4 0.00 0.00 0.00 47 1012.8
20260904215132 37 127 3.2 6.4 0.00 0.00 0.00 47 1012.7
20260904214632 37 98 4.8 6.4 0.00 0.00 0.00 47 1012.7
20260904214132 37 3 6.4 8.0 0.00 0.00 0.00 47 1012.7
20260904213632 38 244 6.4 12.9 0.00 0.00 0.00 47 1012.7
20260904213132 37 95 8.0 16.1 0.00 0.00 0.00 47 1012.9
20260904212632 38 217 6.4 20.9 0.00 0.00 0.00 47 1012.7
20260904212132 38 139 6.4 12.9 0.00 0.00 0.00 47 1012.8
20260904211632 37 179 4.8 12.9 0.00 0.00 0.00 47 1012.9
20260904211132 38 162 4.8 8.0 0.00 0.00 0.00 47 1012.9
20260904210632 38 160 4.8 12.9 0.00 0.00 0.00 47 1012.8
20260904210132 37 94 4.8 11.3 0.00 0.00 0.00 47 1012.9
20260904205632 37 184 6.4 12.9 0.00 0.00 0.00 48 1013.0
20260904205132 38 148 4.8 12.9 0.00 0.00 0.00 47 1013.2
20260904204632 38 161 4.8 11.3 0.00 0.00 0.00 47 1013.2
20260904204134 38 59 6.4 14.5 0.00 0.00 0.00 46 1013.3
20260904203632 38 113 6.4 9.7 0.00 0.00 0.00 46 1013.4
20260904203132 38 137 4.8 12.9 0.00 0.00 0.00 46 1013.4
20260904202632 38 130 4.8 11.3 0.00 0.00 0.00 45 1013.4
20260904202132 38 144 4.8 17.7 0.00 0.00 0.00 47 1013.5
20260904201632 38 207 4.8 9.7 0.00 0.00 0.00 47 1013.6
20260904201132 37 167 4.8 11.3 0.00 0.00 0.00 48 1013.7
20260904200632 37 214 4.8 9.7 0.00 0.00 0.00 48 1013.8
20260904200132 37 119 3.2 11.3 0.00 0.00 0.00 48 1013.9
20260904195632 37 108 3.2 8.0 0.00 0.00 0.00 50 1014.0
20260904195132 37 207 4.8 9.7 0.00 0.00 0.00 49 1014.2
20260904194632 37 208 4.8 14.5 0.00 0.00 0.00 49 1014.2
20260904194132 37 170 4.8 14.5 0.00 0.00 0.00 48 1014.3
20260904193632 38 167 4.8 11.3 0.00 0.00 0.00 48 1014.5
20260904193132 38 194 6.4 9.7 0.00 0.00 0.00 48 1014.6
20260904192632 38 235 4.8 12.9 0.00 0.00 0.00 47 1014.6
20260904192132 38 203 3.2 11.3 0.00 0.00 0.00 47 1014.7
20260904191632 37 347 3.2 6.4 0.00 0.00 0.00 48 1014.7
20260904191132 37 3 4.8 8.0 0.00 0.00 0.00 48 1014.8
20260904190632 37 240 6.4 12.9 0.00 0.00 0.00 49 1014.9
20260904190132 37 182 4.8 11.3 0.00 0.00 0.00 48 1015.0
20260904185632 37 178 4.8 9.7 0.00 0.00 0.00 51 1015.1
20260904185132 37 220 8.0 9.7 0.00 0.00 0.00 50 1015.1
20260904184632 37 239 8.0 17.7 0.00 0.00 0.00 50 1015.1
20260904184132 37 235 8.0 12.9 0.00 0.00 0.00 51 1015.1
20260904183632 37 208 6.4 20.9 0.00 0.00 0.00 51 1015.2
20260904183132 36 195 4.8 12.9 0.00 0.00 0.00 54 1015.3
20260904182632 36 157 3.2 6.4 0.00 0.00 0.00 54 1015.4
20260904182132 36 109 3.2 11.3 0.00 0.00 0.00 53 1015.6